User: anonymous   Login
Location: Unspecified
(51.0000°N, 12.0000°E)
Time: 20:04:33
(UTC+01:00)
Language:

XW-2F - Orbit

View from above orbital plane
View from above orbital plane
View from above satellite
View from above satellite

Ground track
Ground track

The orbit data is extracted from the following two-line orbital elements,

1 40910U 15049M   19083.41059433  .00001050  00000-0  56248-4 0  9998
2 40910  97.4624  88.4297 0016269 124.9025 344.9999 15.17100972193938
Epoch (UTC): 24 March 2019 09:51:15
Eccentricity: 0.0016269
inclination: 97.4624°
perigee height: 503 km
apogee height: 526 km
right ascension of ascending node: 88.4297°
argument of perigee: 124.9025°
revolutions per day: 15.17100972
mean anomaly at epoch: 344.9999°
orbit number at epoch: 19393

The dashed part of the orbit path shows where the satellite is in the earth's shadow,  

DLR